Dublin, VA

1:17 AM EDT on October 24, 2017 (GMT -0400)
New River Valley

Weather History for KPSK - March, 2014

Change the Weather History Date:

Tuesday, March 4, 2014

  Actual Average (KBCB) Record (KBCB)
Temperature  
Mean Temperature 22 °F -  
Max Temperature 32 °F 51 °F 75 °F (1974)
Min Temperature 12 °F 28 °F 4 °F (1980)
Degree Days  
Heating Degree Days 44    
Moisture  
Dew Point 15 °F    
Average Humidity 76    
Maximum Humidity 97    
Minimum Humidity 55    
Precipitation  
Precipitation 0.00 in - - ()
Sea Level Pressure  
Sea Level Pressure 30.19 in    
Wind  
Wind Speed 1 mph (ENE)    
Max Wind Speed 5 mph    
Max Gust Speed -    
Visibility 10 miles    
Events      
Averages and records for this station are not official NWS values.
T = Trace of Precipitation, MM = Missing Value Source: NWS Daily Summary

Daily Weather History Graph

Daily Weather History Graph

Search for Another Location

Airport or City:

Trip Planner

Search our weather history database for the weather conditions in past years. The results will help you decide how hot, cold, wet, or windy it might be!

Date:

Astronomy

Mar. 04, 2014 Rise Set
Actual Time 6:49 AM EST 6:19 PM EST
Civil Twilight 6:23 AM EST 6:45 PM EST
Nautical Twilight 5:53 AM EST 7:15 PM EST
Astronomical Twilight 5:23 AM EST 7:46 PM EST
Moon 8:40 AM EST (3/4) 10:19 PM EST (3/4)
Length of Visible Light 12h 22m
Length of Day
11h 30m
Waxing Crescent, 14% of the Moon is Illuminated
Mar 4
Waxing Crescent
Mar 8
First Quarter
Mar 16
Full
Mar 23
Last Quarter
Mar 30
New

Hourly Weather History & Observations

Time (EST) Temp. Windchill Dew Point Humidity Pressure Visibility Wind Dir Wind Speed Gust Speed Precip Events Conditions
12:15 AM 15.8 °F - 13.1 °F 89% 30.21 in 10.0 mi Calm Calm - N/A   Scattered Clouds
12:35 AM 14.9 °F - 12.2 °F 89% 30.22 in 10.0 mi Calm Calm - N/A   Scattered Clouds
12:55 AM 15.4 °F - 13.1 °F 90% 30.22 in 10.0 mi Calm Calm - N/A   Mostly Cloudy
1:15 AM 15.3 °F - 13.1 °F 91% 30.22 in 10.0 mi Calm Calm - N/A   Mostly Cloudy
1:35 AM 15.3 °F - 12.9 °F 90% 30.22 in 10.0 mi Calm Calm - N/A   Overcast
1:55 AM 15.8 °F - 13.5 °F 90% 30.21 in 10.0 mi Calm Calm - N/A   Overcast
2:15 AM 15.4 °F - 13.1 °F 90% 30.22 in 10.0 mi Calm Calm - N/A   Overcast
2:35 AM 15.4 °F - 13.1 °F 90% 30.21 in 10.0 mi Calm Calm - N/A   Overcast
2:55 AM 14.5 °F - 12.2 °F 90% 30.21 in 10.0 mi Calm Calm - N/A   Overcast
3:15 AM 14.0 °F - 12.2 °F 93% 30.20 in 10.0 mi Calm Calm - N/A   Overcast
3:35 AM 13.6 °F - 12.0 °F 93% 30.21 in 10.0 mi Calm Calm - N/A   Overcast
3:55 AM 13.1 °F - 11.7 °F 94% 30.21 in 10.0 mi Calm Calm - N/A   Scattered Clouds
4:15 AM 12.9 °F - 11.3 °F 93% 30.19 in 10.0 mi Calm Calm - N/A   Mostly Cloudy
4:35 AM 13.1 °F - 12.0 °F 95% 30.21 in 10.0 mi Calm Calm - N/A   Scattered Clouds
4:55 AM 12.7 °F 6.7 °F 11.5 °F 95% 30.21 in 10.0 mi North 3.5 mph - N/A   Clear
5:15 AM 12.6 °F - 11.3 °F 95% 30.21 in 10.0 mi Calm Calm - N/A   Clear
5:35 AM 12.2 °F - 11.3 °F 96% 30.22 in 10.0 mi Calm Calm - N/A   Clear
5:55 AM 12.2 °F - 11.3 °F 96% 30.23 in 10.0 mi Calm Calm - N/A   Clear
6:15 AM 12.4 °F - 11.7 °F 97% 30.24 in 10.0 mi Calm Calm - N/A   Clear
6:35 AM 13.1 °F - 12.2 °F 96% 30.24 in 10.0 mi Calm Calm - N/A   Clear
6:55 AM 12.4 °F - 11.3 °F 95% 30.24 in 10.0 mi Calm Calm - N/A   Clear
7:15 AM 12.2 °F - 11.1 °F 95% 30.24 in 10.0 mi Calm Calm - N/A   Clear
7:35 AM 12.6 °F - 11.3 °F 95% 30.25 in 10.0 mi Calm Calm - N/A   Clear
7:55 AM 13.5 °F - 12.6 °F 96% 30.26 in 10.0 mi Calm Calm - N/A   Clear
8:15 AM 14.2 °F - 13.3 °F 96% 30.26 in 10.0 mi Calm Calm - N/A   Clear
8:35 AM 14.9 °F - 14.0 °F 96% 30.27 in 10.0 mi Calm Calm - N/A   Clear
8:55 AM 15.8 °F - 14.0 °F 93% 30.27 in 10.0 mi Calm Calm - N/A   Clear
9:15 AM 17.2 °F 11.9 °F 14.2 °F 88% 30.26 in 10.0 mi ENE 3.5 mph - N/A   Clear
9:35 AM 17.6 °F 12.3 °F 13.1 °F 83% 30.26 in 10.0 mi East 3.5 mph - N/A   Clear
9:55 AM 18.5 °F 11.7 °F 12.6 °F 78% 30.25 in 10.0 mi NE 4.6 mph - N/A   Clear
10:15 AM 19.0 °F 13.9 °F 13.5 °F 79% 30.25 in 10.0 mi ENE 3.5 mph - N/A   Clear
10:35 AM 20.5 °F 15.6 °F 13.8 °F 75% 30.25 in 10.0 mi ESE 3.5 mph - N/A   Clear
10:55 AM 20.7 °F 14.2 °F 12.9 °F 72% 30.24 in 10.0 mi NE 4.6 mph - N/A   Clear
11:15 AM 21.7 °F - 12.6 °F 68% 30.25 in 10.0 mi Calm Calm - N/A   Clear
11:35 AM 23.0 °F 18.4 °F 12.0 °F 63% 30.24 in 10.0 mi East 3.5 mph - N/A   Clear
11:55 AM 23.9 °F 19.5 °F 13.1 °F 63% 30.23 in 10.0 mi North 3.5 mph - N/A   Clear
12:15 PM 24.6 °F 18.8 °F 13.5 °F 63% 30.22 in 10.0 mi ENE 4.6 mph - N/A   Clear
12:35 PM 24.8 °F 20.5 °F 13.1 °F 61% 30.21 in 10.0 mi NNE 3.5 mph - N/A   Clear
12:55 PM 26.8 °F 22.8 °F 15.3 °F 62% 30.21 in 10.0 mi North 3.5 mph - N/A   Clear
1:15 PM 26.6 °F 22.6 °F 13.8 °F 59% 30.19 in 10.0 mi NNE 3.5 mph - N/A   Clear
1:35 PM 27.3 °F 23.4 °F 14.7 °F 59% 30.19 in 10.0 mi ENE 3.5 mph - N/A   Clear
1:55 PM 28.0 °F - 14.2 °F 56% 30.17 in 10.0 mi Calm Calm - N/A   Clear
2:15 PM 28.9 °F - 14.9 °F 56% 30.17 in 10.0 mi Calm Calm - N/A   Clear
2:35 PM 29.7 °F - 15.6 °F 56% 30.16 in 10.0 mi Calm Calm - N/A   Clear
2:55 PM 30.0 °F - 15.6 °F 55% 30.16 in 10.0 mi Calm Calm - N/A   Clear
3:15 PM 30.7 °F 27.3 °F 17.1 °F 57% 30.14 in 10.0 mi ENE 3.5 mph - N/A   Clear
3:35 PM 30.9 °F 26.2 °F 17.1 °F 57% 30.13 in 10.0 mi ENE 4.6 mph - N/A   Clear
3:55 PM 31.6 °F 27.0 °F 17.8 °F 57% 30.12 in 10.0 mi ENE 4.6 mph - N/A   Clear
4:15 PM 31.6 °F - 18.1 °F 57% 30.13 in 10.0 mi Calm Calm - N/A   Clear
4:35 PM 31.8 °F 28.5 °F 18.1 °F 57% 30.13 in 10.0 mi North 3.5 mph - N/A   Clear
4:55 PM 31.6 °F 28.3 °F 18.7 °F 59% 30.13 in 10.0 mi NE 3.5 mph - N/A   Clear
5:15 PM 31.5 °F 28.1 °F 18.9 °F 60% 30.13 in 10.0 mi NE 3.5 mph - N/A   Clear
5:35 PM 31.1 °F - 18.9 °F 61% 30.14 in 10.0 mi Calm Calm - N/A   Clear
5:55 PM 31.1 °F - 19.9 °F 63% 30.14 in 10.0 mi Calm Calm - N/A   Clear
6:15 PM 30.9 °F - 19.2 °F 62% 30.14 in 10.0 mi Calm Calm - N/A   Clear
6:35 PM 30.6 °F 27.1 °F 18.7 °F 61% 30.15 in 10.0 mi ENE 3.5 mph - N/A   Clear
6:55 PM 30.2 °F 26.7 °F 19.4 °F 64% 30.16 in 10.0 mi East 3.5 mph - N/A   Clear
7:15 PM 29.7 °F 26.1 °F 18.9 °F 64% 30.17 in 10.0 mi East 3.5 mph - N/A   Clear
7:35 PM 28.8 °F 25.0 °F 18.9 °F 67% 30.17 in 10.0 mi East 3.5 mph - N/A   Clear
7:55 PM 28.4 °F 24.6 °F 18.3 °F 66% 30.17 in 10.0 mi East 3.5 mph - N/A   Clear
8:15 PM 27.3 °F 23.4 °F 18.7 °F 70% 30.17 in 10.0 mi ENE 3.5 mph - N/A   Clear
8:35 PM 27.0 °F 23.0 °F 18.7 °F 71% 30.16 in 10.0 mi ENE 3.5 mph - N/A   Clear
8:55 PM 26.4 °F 22.4 °F 18.1 °F 71% 30.16 in 10.0 mi ENE 3.5 mph - N/A   Clear
9:15 PM 26.6 °F - 18.0 °F 70% 30.17 in 10.0 mi Calm Calm - N/A   Clear
9:35 PM 26.2 °F - 17.6 °F 70% 30.16 in 10.0 mi Calm Calm - N/A   Clear
9:55 PM 26.1 °F - 18.3 °F 73% 30.16 in 10.0 mi Calm Calm - N/A   Clear
10:15 PM 25.7 °F - 18.0 °F 73% 30.16 in 10.0 mi Calm Calm - N/A   Clear
10:35 PM 25.9 °F - 16.7 °F 68% 30.15 in 10.0 mi Calm Calm - N/A   Clear
10:55 PM 25.7 °F - 16.9 °F 69% 30.15 in 10.0 mi Calm Calm - N/A   Clear
11:15 PM 25.7 °F - 18.5 °F 74% 30.15 in 10.0 mi Calm Calm - N/A   Clear
11:35 PM 25.3 °F - 19.9 °F 80% 30.14 in 10.0 mi Calm Calm - N/A   Clear
11:55 PM 25.5 °F - 19.8 °F 79% 30.14 in 10.0 mi Calm Calm - N/A   Clear